M I D A S
Marine Information and Data Acquisition System
Tripno 2024 of the Zeeleeuw from 2010-11-10 07:51:26 to 2010-11-10 16:08:12
Back to CruiseResearch ActivitiesStationsMapUnderway DataData graphs

EquipmentUnitsComments
TimeDGPSUTC
LatitudeDGPSDM.mWGS84
LongitudeDGPSDM.mWGS84
SpeedMeteo Stationm/sRelative wind speed
DirectionMeteo StationdegRelative wind direction
TemperatureMeteo Stationdeg CelciusAir temperature
PressureMeteo StationPaAtmospheric pressure
HumidityMeteo Station%Relative humidity
Missing or incorrect values are displayed as -999
Metereological data collected by the RV Zeeleeuw from 2010-11-10 07:48:18 to 2010-11-10 16:16:22
                                                                                    Next 1000 lines
Time Latitude Longitude Speed Direction Temperature Pressure Humidity
2010-11-10 07:48:28 51°13.662 2°55.954 7.2 29 8.3 98940 41
2010-11-10 07:48:32 51°13.662 2°55.952 6.2 55 8.3 98940 41
2010-11-10 07:48:37 51°13.664 2°55.947 7.4 21 8.3 98950 43
2010-11-10 07:48:43 51°13.665 2°55.94 6.5 80 8.3 98950 43
2010-11-10 07:48:48 51°13.667 2°55.934 7.4 29 8.3 98960 40
2010-11-10 07:48:55 51°13.669 2°55.923 7.2 81 8.3 98960 40
2010-11-10 07:49:00 51°13.671 2°55.915 7.2 24 8.4 98950 42
2010-11-10 07:49:06 51°13.672 2°55.905 5.4 286 8.4 98950 42
2010-11-10 07:49:11 51°13.674 2°55.897 6.1 270 8.3 98950 41
2010-11-10 07:49:16 51°13.675 2°55.888 7.4 80 8.3 98950 41
2010-11-10 07:49:21 51°13.677 2°55.88 8.7 21 8.3 98940 41
2010-11-10 07:49:26 51°13.679 2°55.871 8.8 77 8.3 98940 41
2010-11-10 07:49:31 51°13.68 2°55.862 7.8 22 8.3 98940 43
2010-11-10 07:49:36 51°13.682 2°55.853 11.6 286 8.3 98940 43
2010-11-10 07:49:41 51°13.684 2°55.844 9 266 8.2 98960 40
2010-11-10 07:49:46 51°13.685 2°55.836 10.7 73 8.2 98960 40
2010-11-10 07:49:51 51°13.687 2°55.827 10 266 8.2 98970 44
2010-11-10 07:49:56 51°13.689 2°55.818 9.9 78 8.2 98970 44
2010-11-10 07:50:01 51°13.691 2°55.81 10 23 8.2 98970 39
2010-11-10 07:50:06 51°13.693 2°55.801 9.5 80 8.2 98970 39
2010-11-10 07:50:11 51°13.696 2°55.793 9.7 268 8.1 98970 41
2010-11-10 07:50:16 51°13.698 2°55.784 7.9 289 8.1 98970 41
2010-11-10 07:50:21 51°13.7 2°55.776 8.6 26 8.1 98950 40
2010-11-10 07:50:26 51°13.702 2°55.769 9.5 289 8.1 98950 40
2010-11-10 07:50:31 51°13.703 2°55.764 5.8 267 8.1 98960 40
2010-11-10 07:50:36 51°13.704 2°55.761 6.4 85 8.1 98960 40
2010-11-10 07:50:41 51°13.704 2°55.761 7.2 262 8.1 98960 42
2010-11-10 07:50:46 51°13.703 2°55.761 5.4 281 8.1 98960 42
2010-11-10 07:50:51 51°13.702 2°55.76 8.4 26 8.1 98970 42
2010-11-10 07:50:56 51°13.703 2°55.759 8.6 284 8.1 98970 42
2010-11-10 07:51:01 51°13.704 2°55.757 9.4 268 8.1 98950 40
2010-11-10 07:51:06 51°13.705 2°55.753 12.8 80 8.1 98950 40
2010-11-10 07:51:11 51°13.708 2°55.749 12.2 24 8.1 98970 43
2010-11-10 07:51:16 51°13.711 2°55.744 10 291 8.1 98970 43
2010-11-10 07:51:21 51°13.714 2°55.738 7.5 18 8 98970 41
2010-11-10 07:51:26 51°13.718 2°55.732 7.2 74 8 98970 41
2010-11-10 07:51:31 51°13.723 2°55.726 9.2 21 8 98950 42
2010-11-10 07:51:36 51°13.728 2°55.719 9.8 81 8 98950 42
2010-11-10 07:51:41 51°13.733 2°55.712 13.7 22 8 98970 41
2010-11-10 07:51:46 51°13.739 2°55.706 12 74 8 98970 41
2010-11-10 07:51:51 51°13.745 2°55.699 10.3 22 8 98960 42
2010-11-10 07:51:56 51°13.752 2°55.692 11.8 74 8 98960 42
2010-11-10 07:52:01 51°13.758 2°55.685 11 22 8 98970 41
2010-11-10 07:52:06 51°13.765 2°55.678 12.8 76 8 98970 41
2010-11-10 07:52:11 51°13.773 2°55.671 9.9 24 8 98960 41
2010-11-10 07:52:16 51°13.781 2°55.665 10.4 78 8 98960 41
2010-11-10 07:52:21 51°13.789 2°55.658 10.2 21 8 98980 43
2010-11-10 07:52:26 51°13.797 2°55.653 10.1 79 8 98980 43
2010-11-10 07:52:31 51°13.806 2°55.647 11.1 26 8 98980 41
2010-11-10 07:52:36 51°13.815 2°55.642 12.2 76 8 98980 41
2010-11-10 07:52:41 51°13.824 2°55.638 9.2 22 8 98970 42
2010-11-10 07:52:46 51°13.833 2°55.635 13.4 74 8 98970 42
2010-11-10 07:52:51 51°13.842 2°55.633 11.1 23 8 98950 42
2010-11-10 07:52:56 51°13.852 2°55.631 12.2 81 8 98950 42
2010-11-10 07:53:01 51°13.861 2°55.631 8.8 23 7.9 98960 42
2010-11-10 07:53:06 51°13.87 2°55.631 11.8 75 7.9 98960 42
2010-11-10 07:53:11 51°13.878 2°55.631 10.4 19 8 98990 43
2010-11-10 07:53:16 51°13.886 2°55.632 7.7 78 8 98990 43
2010-11-10 07:53:21 51°13.894 2°55.633 8.5 26 8 98970 42
2010-11-10 07:53:26 51°13.901 2°55.634 8.3 74 8 98970 42
2010-11-10 07:53:31 51°13.907 2°55.636 9 23 7.9 98970 42
2010-11-10 07:53:36 51°13.913 2°55.639 7.6 79 7.9 98970 42
2010-11-10 07:53:41 51°13.919 2°55.642 9.4 19 8 98960 45
2010-11-10 07:53:46 51°13.923 2°55.645 9.2 76 8 98960 45
2010-11-10 07:53:51 51°13.928 2°55.648 11.3 24 8 98960 43
2010-11-10 07:53:56 51°13.932 2°55.652 9.6 81 8 98960 43
2010-11-10 07:54:01 51°13.936 2°55.655 11.5 24 8 98950 44
2010-11-10 07:54:06 51°13.939 2°55.659 11.3 74 8 98950 44
2010-11-10 07:54:11 51°13.942 2°55.662 10.8 22 8 98950 43
2010-11-10 07:54:16 51°13.944 2°55.665 8.1 45 8 98950 43
2010-11-10 07:54:21 51°13.945 2°55.667 6.9 25 8 98940 43
2010-11-10 07:54:26 51°13.946 2°55.667 8.3 36 8 98940 43
2010-11-10 07:54:31 51°13.946 2°55.667 8.9 38 8 98940 44
2010-11-10 07:54:36 51°13.946 2°55.665 7.5 40 8 98940 44
2010-11-10 07:54:41 51°13.945 2°55.663 7.3 23 8 98950 45
2010-11-10 07:54:46 51°13.945 2°55.66 8.6 26 8 98950 45
2010-11-10 07:54:51 51°13.945 2°55.657 7.8 22 7.9 98940 44
2010-11-10 07:54:56 51°13.944 2°55.653 9.1 25 7.9 98940 44
2010-11-10 07:55:00 51°13.944 2°55.649 8.5 21 8 98940 43
2010-11-10 07:55:06 51°13.944 2°55.643 8.3 21 8 98940 43
2010-11-10 07:55:11 51°13.945 2°55.638 8.1 17 7.9 98950 42
2010-11-10 07:55:16 51°13.946 2°55.633 8.4 16 7.9 98950 42
2010-11-10 07:55:21 51°13.947 2°55.628 4.4 8 8 98950 42
2010-11-10 07:55:26 51°13.949 2°55.622 9.9 3 8 98950 42
2010-11-10 07:55:31 51°13.951 2°55.617 7.4 4 7.9 98950 44
2010-11-10 07:55:36 51°13.954 2°55.611 4.9 8 7.9 98950 44
2010-11-10 07:55:41 51°13.958 2°55.605 11.1 2 7.9 98940 45
2010-11-10 07:55:46 51°13.962 2°55.599 4 360 7.9 98940 45
2010-11-10 07:55:51 51°13.968 2°55.593 7.1 355 7.9 98940 44
2010-11-10 07:55:56 51°13.974 2°55.586 7.8 358 7.9 98940 44
2010-11-10 07:56:00 51°13.98 2°55.58 5.1 352 7.9 98940 44
2010-11-10 07:56:06 51°13.989 2°55.571 9.8 356 7.9 98940 44
2010-11-10 07:56:10 51°13.995 2°55.564 9.9 345 7.9 98940 45
2010-11-10 07:56:16 51°14.006 2°55.554 10.8 281 7.9 98940 45
2010-11-10 07:56:20 51°14.013 2°55.547 9.9 352 7.9 98940 42
2010-11-10 07:56:25 51°14.022 2°55.538 7.4 354 7.9 98940 42
2010-11-10 07:56:30 51°14.032 2°55.529 11.5 348 7.9 98930 45
2010-11-10 07:56:35 51°14.043 2°55.52 6.2 281 7.9 98930 45
2010-11-10 07:56:40 51°14.053 2°55.51 6.3 349 7.9 98940 42
2010-11-10 07:56:45 51°14.063 2°55.5 11.3 280 7.9 98940 42
2010-11-10 07:56:51 51°14.076 2°55.488 10.1 349 7.9 98930 45
2010-11-10 07:56:56 51°14.087 2°55.478 4.6 280 7.9 98930 45
2010-11-10 07:57:01 51°14.098 2°55.467 13.5 348 7.8 98930 44
2010-11-10 07:57:06 51°14.109 2°55.457 12.3 351 7.8 98930 44
2010-11-10 07:57:11 51°14.12 2°55.446 12.8 348 7.8 98930 43
2010-11-10 07:57:16 51°14.131 2°55.436 6.3 348 7.8 98930 43
2010-11-10 07:57:21 51°14.143 2°55.425 5.9 351 7.8 98940 44
2010-11-10 07:57:26 51°14.155 2°55.413 6 352 7.8 98940 44
2010-11-10 07:57:31 51°14.166 2°55.401 4.8 351 7.8 98930 44
2010-11-10 07:57:36 51°14.178 2°55.389 10.5 351 7.8 98930 44
2010-11-10 07:57:41 51°14.19 2°55.376 7 345 7.8 98930 44
2010-11-10 07:57:46 51°14.201 2°55.362 5.4 279 7.8 98930 44
2010-11-10 07:57:51 51°14.213 2°55.348 13 353 7.8 98930 45
2010-11-10 07:57:56 51°14.224 2°55.334 8 351 7.8 98930 45
2010-11-10 07:58:01 51°14.236 2°55.321 9.9 354 7.8 98940 42
2010-11-10 07:58:06 51°14.248 2°55.307 6.3 353 7.8 98940 42
2010-11-10 07:58:11 51°14.26 2°55.293 11.4 351 7.8 98930 45
2010-11-10 07:58:16 51°14.272 2°55.279 10.3 354 7.8 98930 45
2010-11-10 07:58:21 51°14.284 2°55.265 6 353 7.8 98920 43
2010-11-10 07:58:26 51°14.296 2°55.252 6.5 354 7.8 98920 43
2010-11-10 07:58:31 51°14.308 2°55.238 5.7 354 7.8 98920 42
2010-11-10 07:58:36 51°14.32 2°55.224 6.2 355 7.8 98920 42
2010-11-10 07:58:40 51°14.33 2°55.214 5.9 352 7.8 98910 44
2010-11-10 07:58:45 51°14.342 2°55.2 6 356 7.8 98910 44
2010-11-10 07:58:50 51°14.354 2°55.185 6.5 357 7.8 98920 44
2010-11-10 07:58:55 51°14.366 2°55.171 5.8 357 7.8 98920 44
2010-11-10 07:59:00 51°14.379 2°55.156 10 355 7.7 98920 42
2010-11-10 07:59:05 51°14.391 2°55.143 6 356 7.7 98920 42
2010-11-10 07:59:10 51°14.404 2°55.13 6 354 7.7 98900 44
2010-11-10 07:59:15 51°14.416 2°55.116 8.9 359 7.7 98900 44
2010-11-10 07:59:20 51°14.429 2°55.101 6.3 356 7.7 98920 44
2010-11-10 07:59:24 51°14.438 2°55.089 12 358 7.7 98920 44
2010-11-10 07:59:30 51°14.453 2°55.07 11 354 7.7 98920 43
2010-11-10 07:59:35 51°14.464 2°55.056 6.9 357 7.7 98920 43
2010-11-10 07:59:40 51°14.476 2°55.042 6.9 355 7.8 98910 43
2010-11-10 07:59:44 51°14.487 2°55.03 18.3 355 7.8 98910 43
2010-11-10 07:59:49 51°14.5 2°55.016 6.9 354 7.8 98930 44
2010-11-10 07:59:54 51°14.512 2°55.001 6.8 356 7.8 98930 44
2010-11-10 07:59:59 51°14.524 2°54.984 6.9 356 7.9 98880 43
2010-11-10 08:00:04 51°14.535 2°54.964 14.9 354 7.9 98880 43
2010-11-10 08:00:08 51°14.544 2°54.949 13.5 352 7.8 98900 42
2010-11-10 08:00:14 51°14.558 2°54.925 7.1 353 7.8 98900 42
2010-11-10 08:00:19 51°14.569 2°54.905 6.8 354 7.8 98910 44
2010-11-10 08:00:24 51°14.58 2°54.886 7 354 7.8 98910 44
2010-11-10 08:00:28 51°14.59 2°54.87 3.3 352 7.9 98920 44
2010-11-10 08:00:33 51°14.603 2°54.852 12.8 353 7.9 98920 44
2010-11-10 08:00:38 51°14.615 2°54.834 10.5 352 7.9 98890 42
2010-11-10 08:00:43 51°14.628 2°54.817 6.8 351 7.9 98890 42
2010-11-10 08:00:48 51°14.641 2°54.801 17.3 349 7.9 98900 44
2010-11-10 08:00:52 51°14.651 2°54.789 5.8 281 7.9 98900 44
2010-11-10 08:00:57 51°14.664 2°54.773 13.2 350 7.9 98900 41
2010-11-10 08:01:03 51°14.68 2°54.751 7.3 353 7.9 98900 41
2010-11-10 08:01:08 51°14.694 2°54.734 7 355 7.9 98890 41
2010-11-10 08:01:12 51°14.704 2°54.719 6.1 352 7.9 98890 41
2010-11-10 08:01:16 51°14.714 2°54.705 6.5 352 8 98910 44
2010-11-10 08:01:23 51°14.733 2°54.681 7.3 354 8 98910 44
2010-11-10 08:01:28 51°14.745 2°54.663 7.3 354 8 98910 41
2010-11-10 08:01:32 51°14.756 2°54.65 11.8 354 8 98910 41
2010-11-10 08:01:38 51°14.772 2°54.628 6.5 354 8 98920 42
2010-11-10 08:01:43 51°14.785 2°54.61 7.7 354 8 98920 42
2010-11-10 08:01:48 51°14.799 2°54.593 6.3 356 8 98890 43
2010-11-10 08:01:52 51°14.809 2°54.577 6.6 353 8 98890 43
2010-11-10 08:01:57 51°14.822 2°54.56 11.4 353 8 98890 42
2010-11-10 08:02:03 51°14.837 2°54.537 7 352 8 98890 42
2010-11-10 08:02:08 51°14.85 2°54.519 6 352 8 98910 41
2010-11-10 08:02:12 51°14.861 2°54.505 7 351 8 98910 41
2010-11-10 08:02:17 51°14.874 2°54.487 7.1 353 8.1 98930 44
2010-11-10 08:02:23 51°14.89 2°54.466 11.8 353 8.1 98930 44
2010-11-10 08:02:28 51°14.903 2°54.447 7.1 355 8.1 98910 44
2010-11-10 08:02:32 51°14.914 2°54.433 7 356 8.1 98910 44
2010-11-10 08:02:37 51°14.927 2°54.414 6.6 352 8.1 98910 42
2010-11-10 08:02:43 51°14.942 2°54.392 6.6 352 8.1 98910 42
2010-11-10 08:02:48 51°14.953 2°54.373 6.9 354 8.1 98910 43
2010-11-10 08:02:52 51°14.963 2°54.357 6.4 354 8.1 98910 43
2010-11-10 08:02:56 51°14.972 2°54.34 6.9 357 8.1 98910 43
2010-11-10 08:03:03 51°14.988 2°54.314 6.5 358 8.1 98910 43
2010-11-10 08:03:08 51°14.999 2°54.292 6.2 356 8.1 98920 43
2010-11-10 08:03:12 51°15.007 2°54.276 5.5 1 8.1 98920 43
2010-11-10 08:03:16 51°15.016 2°54.26 11.1 353 8.1 98920 42
2010-11-10 08:03:23 51°15.028 2°54.23 6.8 356 8.1 98920 42
2010-11-10 08:03:28 51°15.038 2°54.208 6.6 358 8.1 98910 42
2010-11-10 08:03:33 51°15.048 2°54.187 5.8 356 8.1 98910 42
2010-11-10 08:03:38 51°15.057 2°54.165 5.8 2 8.2 98910 44
2010-11-10 08:03:43 51°15.067 2°54.143 5.6 356 8.2 98910 44
2010-11-10 08:03:48 51°15.078 2°54.121 6.3 356 8.2 98920 44
2010-11-10 08:03:52 51°15.085 2°54.103 6.5 355 8.2 98920 44
2010-11-10 08:03:57 51°15.096 2°54.081 6.3 358 8.2 98930 44
2010-11-10 08:04:03 51°15.109 2°54.054 6.3 -999 8.2 98930 44
2010-11-10 08:04:08 51°15.12 2°54.033 6.2 357 8.2 98930 44
2010-11-10 08:04:12 51°15.129 2°54.015 6.5 358 8.2 98930 44
2010-11-10 08:04:18 51°15.142 2°53.988 5.9 355 8.2 98930 43
2010-11-10 08:04:23 51°15.153 2°53.967 6.4 357 8.2 98930 43
2010-11-10 08:04:27 51°15.162 2°53.949 6.8 358 8.2 98940 43
2010-11-10 08:04:32 51°15.174 2°53.928 7 358 8.2 98940 43
2010-11-10 08:04:37 51°15.186 2°53.907 7 358 8.2 98920 42
2010-11-10 08:04:43 51°15.2 2°53.885 6.4 358 8.2 98920 42
2010-11-10 08:04:48 51°15.211 2°53.865 7 356 8.1 98920 43
2010-11-10 08:04:52 51°15.221 2°53.849 7 357 8.1 98920 43
2010-11-10 08:04:57 51°15.233 2°53.829 6.4 354 8.1 98920 41
2010-11-10 08:05:03 51°15.248 2°53.806 6.3 355 8.1 98920 41
2010-11-10 08:05:08 51°15.26 2°53.787 6.6 356 8.1 98940 43
2010-11-10 08:05:12 51°15.27 2°53.772 6.7 356 8.1 98940 43
2010-11-10 08:05:16 51°15.28 2°53.757 6.5 355 8.1 98910 44
2010-11-10 08:05:23 51°15.296 2°53.73 6 355 8.1 98910 44
2010-11-10 08:05:28 51°15.309 2°53.712 6.6 357 8.1 98930 44
2010-11-10 08:05:32 51°15.318 2°53.697 6.7 359 8.1 98930 44
2010-11-10 08:05:36 51°15.328 2°53.682 5.1 356 8.1 98910 44
2010-11-10 08:05:43 51°15.344 2°53.656 6.5 355 8.1 98910 44
2010-11-10 08:05:48 51°15.356 2°53.637 6.7 356 8.1 98940 43
2010-11-10 08:05:52 51°15.365 2°53.622 6.9 356 8.1 98940 43
2010-11-10 08:05:57 51°15.377 2°53.603 5.8 353 8.1 98910 41
2010-11-10 08:06:03 51°15.391 2°53.579 5.9 356 8.1 98910 41
2010-11-10 08:06:08 51°15.403 2°53.56 6.9 356 8.1 98950 44
2010-11-10 08:06:13 51°15.415 2°53.541 7 352 8.1 98950 44
2010-11-10 08:06:17 51°15.424 2°53.525 5.8 356 8.1 98930 44
2010-11-10 08:06:22 51°15.437 2°53.507 5.8 352 8.1 98930 44
2010-11-10 08:06:28 51°15.453 2°53.485 6.4 355 8.1 98940 43
2010-11-10 08:06:32 51°15.463 2°53.472 6.4 352 8.1 98940 43
2010-11-10 08:06:37 51°15.477 2°53.456 6.9 351 8.1 98930 44
2010-11-10 08:06:43 51°15.493 2°53.438 6.6 350 8.1 98930 44
2010-11-10 08:06:48 51°15.507 2°53.423 6.4 351 8.1 98930 43
2010-11-10 08:06:52 51°15.518 2°53.411 6.8 352 8.1 98930 43
2010-11-10 08:06:57 51°15.532 2°53.397 12 350 8 98910 44
2010-11-10 08:07:03 51°15.55 2°53.38 7.2 351 8 98910 44
2010-11-10 08:07:08 51°15.565 2°53.368 5.3 349 8 98940 43
2010-11-10 08:07:12 51°15.576 2°53.358 5.8 351 8 98940 43
2010-11-10 08:07:18 51°15.593 2°53.346 14.4 347 8 98920 44
2010-11-10 08:07:23 51°15.607 2°53.334 13.5 347 8 98920 44
2010-11-10 08:07:28 51°15.62 2°53.323 6.2 348 8 98920 43
2010-11-10 08:07:32 51°15.631 2°53.314 6.2 281 8 98920 43
2010-11-10 08:07:38 51°15.647 2°53.3 6 350 8.1 98950 44
2010-11-10 08:07:44 51°15.663 2°53.288 14.6 348 8.1 98950 44
2010-11-10 08:07:48 51°15.674 2°53.279 15.7 350 8 98910 44
2010-11-10 08:07:53 51°15.688 2°53.268 11.3 349 8 98910 44
2010-11-10 08:07:58 51°15.702 2°53.256 14.9 349 8 98950 44
2010-11-10 08:08:03 51°15.716 2°53.245 6.2 348 8 98950 44
2010-11-10 08:08:08 51°15.73 2°53.234 6.5 348 8 98950 44
2010-11-10 08:08:12 51°15.742 2°53.226 6.5 350 8 98950 44
2010-11-10 08:08:17 51°15.757 2°53.214 6.3 351 8 98920 43
2010-11-10 08:08:23 51°15.775 2°53.201 5.6 350 8 98920 43
2010-11-10 08:08:28 51°15.789 2°53.189 12.5 348 8 98910 43
2010-11-10 08:08:32 51°15.801 2°53.181 7 349 8 98910 43
2010-11-10 08:08:37 51°15.816 2°53.17 14.2 350 8 98940 42
2010-11-10 08:08:43 51°15.833 2°53.157 7 350 8 98940 42
2010-11-10 08:08:47 51°15.845 2°53.147 6.7 351 8 98950 44
2010-11-10 08:08:52 51°15.86 2°53.136 6.2 349 8 98950 44
2010-11-10 08:08:58 51°15.878 2°53.122 6.1 350 8.1 98940 42
2010-11-10 08:09:03 51°15.892 2°53.11 13.3 348 8.1 98940 42
2010-11-10 08:09:07 51°15.904 2°53.101 10.5 347 8 98910 44
2010-11-10 08:09:12 51°15.919 2°53.09 6.6 347 8 98910 44
2010-11-10 08:09:17 51°15.934 2°53.079 12.6 346 8 98930 43
2010-11-10 08:09:23 51°15.952 2°53.065 5.9 350 8 98930 43
2010-11-10 08:09:28 51°15.966 2°53.054 5.9 348 8 98930 43
2010-11-10 08:09:32 51°15.978 2°53.045 6.1 349 8 98930 43
2010-11-10 08:09:37 51°15.993 2°53.033 5.6 347 8.1 98940 44
2010-11-10 08:09:43 51°16.011 2°53.019 5.9 346 8.1 98940 44
2010-11-10 08:09:48 51°16.026 2°53.007 6.1 347 8 98920 44
2010-11-10 08:09:52 51°16.038 2°52.998 5.7 283 8 98920 44
2010-11-10 08:09:56 51°16.05 2°52.988 5.8 347 8 98940 44
2010-11-10 08:10:03 51°16.071 2°52.972 13.2 282 8 98940 44
2010-11-10 08:10:08 51°16.085 2°52.96 7 346 8 98950 44
2010-11-10 08:10:13 51°16.099 2°52.948 14.5 346 8 98950 44
2010-11-10 08:10:18 51°16.113 2°52.936 9.3 347 8.1 98930 43
2010-11-10 08:10:23 51°16.127 2°52.925 12.4 282 8.1 98930 43
2010-11-10 08:10:28 51°16.141 2°52.913 6.4 346 8 98960 42
2010-11-10 08:10:32 51°16.153 2°52.903 12.5 282 8 98960 42
2010-11-10 08:10:37 51°16.167 2°52.891 14.7 344 8 98920 44
2010-11-10 08:10:43 51°16.185 2°52.878 11.7 345 8 98920 44
2010-11-10 08:10:48 51°16.2 2°52.866 6.4 344 8 98950 43
2010-11-10 08:10:52 51°16.212 2°52.858 5.4 282 8 98950 43
2010-11-10 08:10:57 51°16.227 2°52.847 9.6 348 7.9 98930 44
2010-11-10 08:11:03 51°16.245 2°52.834 12.5 347 7.9 98930 44
2010-11-10 08:11:08 51°16.26 2°52.824 5.6 346 8 98930 43
2010-11-10 08:11:12 51°16.272 2°52.816 5.8 346 8 98930 43
2010-11-10 08:11:18 51°16.291 2°52.804 5.7 346 8 98950 43
2010-11-10 08:11:23 51°16.306 2°52.794 13.2 283 8 98950 43
2010-11-10 08:11:27 51°16.318 2°52.787 14.1 346 8 98960 45
2010-11-10 08:11:32 51°16.334 2°52.777 6.4 280 8 98960 45
2010-11-10 08:11:37 51°16.349 2°52.767 5.7 345 8 98950 44
2010-11-10 08:11:43 51°16.366 2°52.756 9.7 282 8 98950 44
2010-11-10 08:11:48 51°16.381 2°52.747 5.9 347 8 98950 43
2010-11-10 08:11:52 51°16.393 2°52.739 10.4 347 8 98950 43
2010-11-10 08:11:58 51°16.411 2°52.727 5.8 346 8 98940 43
2010-11-10 08:12:03 51°16.426 2°52.718 5.9 282 8 98940 43
2010-11-10 08:12:08 51°16.441 2°52.708 13.4 346 8 98950 44
2010-11-10 08:12:12 51°16.453 2°52.7 6.1 346 8 98950 44
2010-11-10 08:12:16 51°16.465 2°52.693 5.7 346 8 98950 44
2010-11-10 08:12:23 51°16.487 2°52.682 13.1 281 8 98950 44
2010-11-10 08:12:28 51°16.502 2°52.674 11.3 345 8 98960 44
2010-11-10 08:12:32 51°16.514 2°52.668 6.2 281 8 98960 44
2010-11-10 08:12:37 51°16.529 2°52.661 13.6 346 8 98930 43
2010-11-10 08:12:43 51°16.548 2°52.652 5.9 282 8 98930 43
2010-11-10 08:12:48 51°16.563 2°52.644 8.9 346 8 98960 43
2010-11-10 08:12:52 51°16.575 2°52.638 12.1 282 8 98960 43
2010-11-10 08:12:57 51°16.591 2°52.631 6.2 347 8 98940 44
2010-11-10 08:13:03 51°16.61 2°52.623 9.7 279 8 98940 44
2010-11-10 08:13:08 51°16.624 2°52.616 12.4 348 8 98960 43
2010-11-10 08:13:12 51°16.637 2°52.611 7.9 282 8 98960 43
2010-11-10 08:13:17 51°16.651 2°52.603 15.2 348 8.1 98950 44
2010-11-10 08:13:23 51°16.669 2°52.596 6.6 279 8.1 98950 44
2010-11-10 08:13:28 51°16.683 2°52.589 10.5 345 8.1 98940 43
2010-11-10 08:13:32 51°16.695 2°52.584 5.7 279 8.1 98940 43
2010-11-10 08:13:37 51°16.71 2°52.578 10.2 346 8.1 98970 44
2010-11-10 08:13:43 51°16.728 2°52.571 12.7 283 8.1 98970 44
2010-11-10 08:13:48 51°16.744 2°52.564 9.4 346 8.1 98920 45
2010-11-10 08:13:52 51°16.756 2°52.56 5.8 282 8.1 98920 45
2010-11-10 08:13:58 51°16.774 2°52.553 13.1 346 8.1 98960 42
2010-11-10 08:14:03 51°16.79 2°52.547 5.4 349 8.1 98960 42
2010-11-10 08:14:08 51°16.806 2°52.54 13 346 8.1 98940 43
2010-11-10 08:14:12 51°16.818 2°52.535 5.9 282 8.1 98940 43
2010-11-10 08:14:18 51°16.838 2°52.528 6 344 8.1 98970 43
2010-11-10 08:14:23 51°16.854 2°52.522 5.9 282 8.1 98970 43
2010-11-10 08:14:28 51°16.869 2°52.515 5.2 348 8.1 98950 44
2010-11-10 08:14:32 51°16.882 2°52.51 5 280 8.1 98950 44
2010-11-10 08:14:36 51°16.895 2°52.505 12 345 8.1 98950 44
2010-11-10 08:14:42 51°16.914 2°52.498 9.9 284 8.1 98950 44
2010-11-10 08:14:48 51°16.934 2°52.491 5.9 345 8.1 98930 43
2010-11-10 08:14:52 51°16.947 2°52.485 5.8 280 8.1 98930 43
2010-11-10 08:14:56 51°16.959 2°52.48 12.7 346 8.2 98960 45
2010-11-10 08:15:03 51°16.982 2°52.472 9.6 282 8.2 98960 45
2010-11-10 08:15:08 51°16.998 2°52.465 4.9 345 8.2 98960 42
2010-11-10 08:15:12 51°17.011 2°52.459 4.6 282 8.2 98960 42
2010-11-10 08:15:18 51°17.028 2°52.452 10.3 341 8.2 98960 43
2010-11-10 08:15:23 51°17.044 2°52.446 8.6 284 8.2 98960 43
2010-11-10 08:15:28 51°17.06 2°52.44 5.4 346 8.2 98950 44
2010-11-10 08:15:32 51°17.072 2°52.435 9.7 280 8.2 98950 44
2010-11-10 08:15:38 51°17.091 2°52.428 10.9 345 8.2 98970 44
2010-11-10 08:15:43 51°17.106 2°52.423 4.7 281 8.2 98970 44
2010-11-10 08:15:47 51°17.118 2°52.42 4.4 343 8.2 98940 44
2010-11-10 08:15:52 51°17.134 2°52.415 9.8 284 8.2 98940 44
2010-11-10 08:15:58 51°17.153 2°52.412 11.8 341 8.2 98950 44
2010-11-10 08:16:03 51°17.169 2°52.409 12 286 8.2 98950 44
2010-11-10 08:16:08 51°17.185 2°52.407 8.2 342 8.2 98980 42
2010-11-10 08:16:12 51°17.197 2°52.406 10.7 281 8.2 98980 42
2010-11-10 08:16:18 51°17.216 2°52.405 5.9 341 8.2 98970 44
2010-11-10 08:16:23 51°17.232 2°52.402 10.8 281 8.2 98970 44
2010-11-10 08:16:28 51°17.247 2°52.401 11.6 339 8.2 98960 43
2010-11-10 08:16:32 51°17.26 2°52.4 9.7 279 8.2 98960 43
2010-11-10 08:16:37 51°17.277 2°52.398 13.5 341 8.3 98980 44
2010-11-10 08:16:43 51°17.295 2°52.397 10.6 286 8.3 98980 44
2010-11-10 08:16:48 51°17.312 2°52.394 14.9 334 8.3 98950 43
2010-11-10 08:16:52 51°17.325 2°52.393 15.1 283 8.3 98950 43
2010-11-10 08:16:56 51°17.337 2°52.391 11.8 333 8.3 98970 45
2010-11-10 08:17:03 51°17.36 2°52.389 13.2 283 8.3 98970 45
2010-11-10 08:17:08 51°17.377 2°52.386 6.7 338 8.3 98970 44
2010-11-10 08:17:12 51°17.389 2°52.386 17.3 281 8.3 98970 44
2010-11-10 08:17:16 51°17.402 2°52.384 14.8 333 8.3 98950 44
2010-11-10 08:17:23 51°17.425 2°52.383 19.6 281 8.3 98950 44
2010-11-10 08:17:28 51°17.441 2°52.385 14 329 8.4 98960 44
2010-11-10 08:17:32 51°17.454 2°52.386 15 283 8.4 98960 44
2010-11-10 08:17:38 51°17.473 2°52.388 16 328 8.4 98960 43
2010-11-10 08:17:43 51°17.489 2°52.391 13.5 284 8.4 98960 43
2010-11-10 08:17:47 51°17.501 2°52.392 19.8 328 8.4 98950 44
2010-11-10 08:17:52 51°17.517 2°52.396 15.1 286 8.4 98950 44
2010-11-10 08:17:57 51°17.533 2°52.4 16.2 329 8.4 98950 43
2010-11-10 08:18:03 51°17.552 2°52.403 6.8 283 8.4 98950 43
2010-11-10 08:18:08 51°17.567 2°52.407 11.5 331 8.4 98940 42
2010-11-10 08:18:12 51°17.58 2°52.41 7 282 8.4 98940 42
2010-11-10 08:18:18 51°17.598 2°52.415 15.8 333 8.4 98930 42
2010-11-10 08:18:23 51°17.614 2°52.418 13.9 286 8.4 98930 42
2010-11-10 08:18:28 51°17.629 2°52.422 17.8 331 8.4 98960 43
2010-11-10 08:18:32 51°17.641 2°52.425 15.3 284 8.4 98960 43
2010-11-10 08:18:38 51°17.659 2°52.429 18.4 333 8.5 98950 42
2010-11-10 08:18:43 51°17.673 2°52.432 7.5 282 8.5 98950 42
2010-11-10 08:18:48 51°17.688 2°52.433 12.6 332 8.5 98950 42
2010-11-10 08:18:52 51°17.7 2°52.436 7.4 280 8.5 98950 42
2010-11-10 08:18:57 51°17.715 2°52.439 12.2 332 8.5 98930 42
2010-11-10 08:19:03 51°17.733 2°52.442 13.6 286 8.5 98930 42
2010-11-10 08:19:08 51°17.748 2°52.445 16.7 330 8.6 98960 42
2010-11-10 08:19:12 51°17.76 2°52.447 12.7 281 8.6 98960 42
2010-11-10 08:19:17 51°17.774 2°52.451 6.9 334 8.6 98970 41
2010-11-10 08:19:23 51°17.792 2°52.454 6.5 281 8.6 98970 41
2010-11-10 08:19:28 51°17.807 2°52.457 11.9 331 8.6 98960 42
2010-11-10 08:19:32 51°17.818 2°52.459 16.7 286 8.6 98960 42
2010-11-10 08:19:37 51°17.834 2°52.461 15.3 332 8.6 98980 42
2010-11-10 08:19:43 51°17.851 2°52.464 16.9 284 8.6 98980 42
2010-11-10 08:19:48 51°17.866 2°52.467 7.2 330 8.7 98950 42
2010-11-10 08:19:53 51°17.881 2°52.47 15 287 8.7 98950 42
2010-11-10 08:19:57 51°17.893 2°52.471 14.7 331 8.7 98960 42
2010-11-10 08:20:02 51°17.909 2°52.475 12.9 282 8.7 98960 42
2010-11-10 08:20:08 51°17.926 2°52.478 7.1 328 8.7 98960 42
2010-11-10 08:20:12 51°17.938 2°52.48 15.1 282 8.7 98960 42
2010-11-10 08:20:18 51°17.957 2°52.484 17.1 329 8.6 98960 42
2010-11-10 08:20:23 51°17.972 2°52.486 16.1 286 8.6 98960 42
2010-11-10 08:20:28 51°17.988 2°52.488 14.4 332 8.6 98960 41
2010-11-10 08:20:33 51°18.003 2°52.491 17.8 281 8.6 98960 41
2010-11-10 08:20:37 51°18.015 2°52.493 20.4 332 8.6 98950 42
2010-11-10 08:20:43 51°18.034 2°52.496 7.7 282 8.6 98950 42
2010-11-10 08:20:48 51°18.049 2°52.499 8.1 333 8.7 98940 42
2010-11-10 08:20:53 51°18.063 2°52.502 18.8 285 8.7 98940 42
2010-11-10 08:20:58 51°18.078 2°52.504 14.3 332 8.7 98960 42
2010-11-10 08:21:03 51°18.093 2°52.505 7.7 283 8.7 98960 42
2010-11-10 08:21:08 51°18.109 2°52.509 13.9 334 8.7 98950 43
2010-11-10 08:21:12 51°18.122 2°52.51 7.3 282 8.7 98950 43
2010-11-10 08:21:17 51°18.137 2°52.513 10.7 335 8.7 98950 42
2010-11-10 08:21:23 51°18.154 2°52.517 7 286 8.7 98950 42
2010-11-10 08:21:28 51°18.17 2°52.519 10.7 335 8.7 98970 42
2010-11-10 08:21:32 51°18.182 2°52.52 16.9 283 8.7 98970 42
2010-11-10 08:21:38 51°18.198 2°52.527 7.2 332 8.7 98960 41
2010-11-10 08:21:44 51°18.216 2°52.532 14.5 284 8.7 98960 41
2010-11-10 08:21:48 51°18.227 2°52.539 15.1 333 8.7 98950 42
2010-11-10 08:21:53 51°18.241 2°52.546 15.5 286 8.7 98950 42
2010-11-10 08:21:58 51°18.255 2°52.555 7.9 334 8.7 98950 42
2010-11-10 08:22:03 51°18.269 2°52.564 16.3 283 8.7 98950 42
2010-11-10 08:22:08 51°18.283 2°52.574 15.9 330 8.7 98940 41
2010-11-10 08:22:13 51°18.297 2°52.583 10.1 286 8.7 98940 41
2010-11-10 08:22:17 51°18.308 2°52.591 14.1 331 8.6 98950 43
2010-11-10 08:22:22 51°18.322 2°52.602 7.5 283 8.6 98950 43
2010-11-10 08:22:28 51°18.338 2°52.616 16.9 325 8.6 98970 41
2010-11-10 08:22:32 51°18.347 2°52.628 7.8 282 8.6 98970 41
2010-11-10 08:22:38 51°18.359 2°52.648 12.9 318 8.6 98970 42
2010-11-10 08:22:43 51°18.367 2°52.666 15.9 281 8.6 98970 42
2010-11-10 08:22:48 51°18.375 2°52.686 14.5 320 8.7 98930 42
2010-11-10 08:22:52 51°18.382 2°52.7 18.4 284 8.7 98930 42
2010-11-10 08:22:58 51°18.392 2°52.724 7.8 320 8.6 98960 41
2010-11-10 08:23:03 51°18.399 2°52.744 19.2 287 8.6 98960 41
2010-11-10 08:23:08 51°18.408 2°52.763 14.4 321 8.7 98930 43
2010-11-10 08:23:12 51°18.414 2°52.78 16.6 283 8.7 98930 43
2010-11-10 08:23:17 51°18.422 2°52.8 16.9 317 8.7 98910 43
2010-11-10 08:23:23 51°18.432 2°52.824 16 283 8.7 98910 43
2010-11-10 08:23:28 51°18.438 2°52.846 16.4 320 8.7 98920 42
2010-11-10 08:23:32 51°18.445 2°52.862 6.7 284 8.7 98920 42
2010-11-10 08:23:36 51°18.452 2°52.878 14.3 317 8.6 98930 41
2010-11-10 08:23:42 51°18.46 2°52.904 16.4 285 8.6 98930 41
2010-11-10 08:23:48 51°18.471 2°52.928 6.9 320 8.7 98950 41
2010-11-10 08:23:52 51°18.476 2°52.944 7.9 281 8.7 98950 41
2010-11-10 08:23:58 51°18.486 2°52.968 7.8 318 8.7 98960 42
2010-11-10 08:24:03 51°18.494 2°52.988 15.9 285 8.7 98960 42
2010-11-10 08:24:08 51°18.501 2°53.009 16.3 315 8.7 98930 43
2010-11-10 08:24:12 51°18.507 2°53.025 15.3 283 8.7 98930 43
2010-11-10 08:24:17 51°18.514 2°53.046 17.4 316 8.7 98950 43
2010-11-10 08:24:23 51°18.523 2°53.069 16.3 283 8.7 98950 43
2010-11-10 08:24:27 51°18.529 2°53.085 7.3 315 8.7 98950 42
2010-11-10 08:24:32 51°18.535 2°53.107 7.6 280 8.7 98950 42
2010-11-10 08:24:37 51°18.544 2°53.126 15.1 22 8.7 98950 42
2010-11-10 08:24:43 51°18.552 2°53.151 17.9 283 8.7 98950 42
2010-11-10 08:24:48 51°18.561 2°53.17 16.3 19 8.7 98950 42
2010-11-10 08:24:52 51°18.566 2°53.186 12.8 283 8.7 98950 42
2010-11-10 08:24:58 51°18.576 2°53.21 14 24 8.7 98940 42
2010-11-10 08:25:03 51°18.583 2°53.231 17.9 284 8.7 98940 42
2010-11-10 08:25:08 51°18.591 2°53.251 10.9 23 8.7 98960 41
2010-11-10 08:25:12 51°18.598 2°53.267 8.3 283 8.7 98960 41
2010-11-10 08:25:17 51°18.604 2°53.288 20.1 20 8.7 98950 42
2010-11-10 08:25:23 51°18.613 2°53.312 14.1 281 8.7 98950 42
2010-11-10 08:25:28 51°18.619 2°53.333 16.1 318 8.7 98940 43
2010-11-10 08:25:32 51°18.626 2°53.349 20.7 280 8.7 98940 43
2010-11-10 08:25:37 51°18.633 2°53.369 16 20 8.7 98950 42
2010-11-10 08:25:43 51°18.642 2°53.393 17.4 282 8.7 98950 42
2010-11-10 08:25:48 51°18.649 2°53.413 18.3 23 8.6 98930 41
2010-11-10 08:25:52 51°18.654 2°53.429 17.8 283 8.6 98930 41
2010-11-10 08:25:56 51°18.66 2°53.446 17.4 24 8.6 98930 42
2010-11-10 08:26:03 51°18.669 2°53.474 16.5 283 8.6 98930 42
2010-11-10 08:26:08 51°18.677 2°53.494 14.9 23 8.7 98930 43
2010-11-10 08:26:12 51°18.681 2°53.512 14.4 281 8.7 98930 43
2010-11-10 08:26:18 51°18.691 2°53.535 16.3 23 8.7 98960 41
2010-11-10 08:26:23 51°18.697 2°53.557 16.8 284 8.7 98960 41
2010-11-10 08:26:27 51°18.702 2°53.574 17.3 22 8.6 98950 40
2010-11-10 08:26:32 51°18.709 2°53.594 17.1 283 8.6 98950 40
2010-11-10 08:26:37 51°18.716 2°53.614 14.5 23 8.6 98940 42
2010-11-10 08:26:43 51°18.724 2°53.639 15.1 284 8.6 98940 42
2010-11-10 08:26:47 51°18.729 2°53.657 16.8 23 8.6 98930 42
2010-11-10 08:26:52 51°18.736 2°53.677 7.3 281 8.6 98930 42
2010-11-10 08:26:57 51°18.741 2°53.699 15.9 20 8.6 98940 41
2010-11-10 08:27:03 51°18.751 2°53.723 13.4 283 8.6 98940 41
2010-11-10 08:27:08 51°18.757 2°53.744 10.9 317 8.6 98950 41
2010-11-10 08:27:12 51°18.763 2°53.76 17.3 283 8.6 98950 41
2010-11-10 08:27:18 51°18.77 2°53.785 17.4 23 8.7 98950 39
2010-11-10 08:27:23 51°18.777 2°53.806 15 283 8.7 98950 39
2010-11-10 08:27:28 51°18.785 2°53.825 13.4 21 8.7 98930 42
2010-11-10 08:27:32 51°18.79 2°53.841 15.8 280 8.7 98930 42
2010-11-10 08:27:37 51°18.797 2°53.862 14 26 8.7 98950 40
2010-11-10 08:27:43 51°18.805 2°53.887 13.1 282 8.7 98950 40
2010-11-10 08:27:48 51°18.812 2°53.908 17.6 22 8.7 98940 42
2010-11-10 08:27:52 51°18.818 2°53.924 7.3 281 8.7 98940 42
2010-11-10 08:27:57 51°18.825 2°53.944 17.1 19 8.7 98960 41
2010-11-10 08:28:03 51°18.833 2°53.969 13.7 -999 8.7 98960 41
2010-11-10 08:28:08 51°18.84 2°53.991 7.4 26 8.7 98950 41
2010-11-10 08:28:12 51°18.844 2°54.008 17.6 282 8.7 98950 41
2010-11-10 08:28:16 51°18.85 2°54.024 16.7 21 8.7 98950 41
2010-11-10 08:28:23 51°18.859 2°54.053 17 284 8.7 98950 41
2010-11-10 08:28:28 51°18.866 2°54.072 16.4 19 8.7 98950 41
2010-11-10 08:28:32 51°18.871 2°54.089 8 282 8.7 98950 41
2010-11-10 08:28:38 51°18.879 2°54.114 14.9 23 8.7 98940 41
2010-11-10 08:28:43 51°18.887 2°54.134 14.3 281 8.7 98940 41
2010-11-10 08:28:48 51°18.893 2°54.155 16 24 8.8 98940 40
2010-11-10 08:28:52 51°18.899 2°54.171 13.5 283 8.8 98940 40
2010-11-10 08:28:57 51°18.905 2°54.191 12.5 20 8.8 98930 41
2010-11-10 08:29:03 51°18.912 2°54.216 16.3 285 8.8 98930 41
2010-11-10 08:29:08 51°18.92 2°54.236 10.6 23 8.8 98950 41
2010-11-10 08:29:13 51°18.926 2°54.257 12.3 283 8.8 98950 41
2010-11-10 08:29:17 51°18.932 2°54.272 8.4 27 8.8 98980 40
2010-11-10 08:29:23 51°18.94 2°54.297 10.4 285 8.8 98980 40
2010-11-10 08:29:28 51°18.948 2°54.316 8.7 23 8.8 98940 41
2010-11-10 08:29:32 51°18.953 2°54.333 14.7 287 8.8 98940 41
2010-11-10 08:29:38 51°18.962 2°54.356 11.1 23 8.8 98950 42
2010-11-10 08:29:43 51°18.968 2°54.377 17.4 283 8.8 98950 42
2010-11-10 08:29:48 51°18.975 2°54.397 17.3 23 8.8 98940 41
2010-11-10 08:29:52 51°18.98 2°54.414 7.4 285 8.8 98940 41
2010-11-10 08:29:57 51°18.988 2°54.434 12.1 19 8.8 98930 40
2010-11-10 08:30:03 51°18.996 2°54.459 14 284 8.8 98930 40
2010-11-10 08:30:08 51°19.003 2°54.479 13.2 21 8.8 98940 40
2010-11-10 08:30:12 51°19.008 2°54.497 17.1 284 8.8 98940 40
2010-11-10 08:30:17 51°19.015 2°54.517 15.4 24 8.8 98950 41
2010-11-10 08:30:23 51°19.022 2°54.542 10.5 281 8.8 98950 41
2010-11-10 08:30:28 51°19.027 2°54.564 17.2 23 8.8 98950 42
2010-11-10 08:30:32 51°19.034 2°54.578 16.3 284 8.8 98950 42
2010-11-10 08:30:36 51°19.039 2°54.596 14.1 23 8.9 98960 41
2010-11-10 08:30:43 51°19.049 2°54.624 15.8 286 8.9 98960 41
2010-11-10 08:30:48 51°19.055 2°54.645 13.3 19 8.9 98950 41
2010-11-10 08:30:52 51°19.061 2°54.66 6.8 283 8.9 98950 41
2010-11-10 08:30:57 51°19.067 2°54.682 12.1 22 8.9 98960 41
2010-11-10 08:31:03 51°19.076 2°54.707 14 281 8.9 98960 41
2010-11-10 08:31:07 51°19.081 2°54.724 14.3 20 8.8 98960 40
2010-11-10 08:31:12 51°19.088 2°54.744 7 280 8.8 98960 40
2010-11-10 08:31:17 51°19.095 2°54.765 13.6 26 8.9 98960 40
2010-11-10 08:31:23 51°19.101 2°54.791 13 285 8.9 98960 40
2010-11-10 08:31:28 51°19.109 2°54.811 11.6 24 8.9 98960 41
2010-11-10 08:31:32 51°19.115 2°54.828 12.5 285 8.9 98960 41
2010-11-10 08:31:38 51°19.123 2°54.853 13.5 23 8.9 98950 40
2010-11-10 08:31:43 51°19.13 2°54.873 6.5 283 8.9 98950 40
2010-11-10 08:31:48 51°19.137 2°54.894 15.8 20 8.8 98970 41
2010-11-10 08:31:52 51°19.143 2°54.911 15.6 286 8.8 98970 41
2010-11-10 08:31:58 51°19.151 2°54.936 15.5 25 8.8 98960 39
2010-11-10 08:32:03 51°19.158 2°54.956 14.7 281 8.8 98960 39
2010-11-10 08:32:08 51°19.165 2°54.977 14.6 23 8.9 98960 41
2010-11-10 08:32:12 51°19.171 2°54.993 16.6 282 8.9 98960 41
2010-11-10 08:32:17 51°19.178 2°55.014 15 24 8.9 98960 40
2010-11-10 08:32:23 51°19.186 2°55.038 7.1 282 8.9 98960 40
2010-11-10 08:32:28 51°19.194 2°55.059 12.5 26 8.9 98980 40
2010-11-10 08:32:32 51°19.198 2°55.077 15.1 283 8.9 98980 40
2010-11-10 08:32:37 51°19.207 2°55.096 14.4 316 8.9 98970 41
2010-11-10 08:32:43 51°19.213 2°55.121 16.2 281 8.9 98970 41
2010-11-10 08:32:48 51°19.221 2°55.141 13.9 19 8.9 98970 40
2010-11-10 08:32:52 51°19.226 2°55.157 14.5 283 8.9 98970 40
2010-11-10 08:32:58 51°19.235 2°55.181 11.9 25 8.9 98960 40
2010-11-10 08:33:03 51°19.242 2°55.201 14.7 284 8.9 98960 40
2010-11-10 08:33:08 51°19.248 2°55.222 14.1 24 8.9 98970 40
2010-11-10 08:33:12 51°19.253 2°55.239 16 280 8.9 98970 40
2010-11-10 08:33:17 51°19.26 2°55.258 12.9 23 8.9 98980 42
2010-11-10 08:33:23 51°19.268 2°55.282 12.7 283 8.9 98980 42
2010-11-10 08:33:27 51°19.274 2°55.298 6.7 24 8.9 98990 41
2010-11-10 08:33:32 51°19.28 2°55.319 13.6 286 8.9 98990 41
2010-11-10 08:33:37 51°19.287 2°55.338 14.7 22 8.9 98940 42
2010-11-10 08:33:42 51°19.293 2°55.359 6.7 280 8.9 98940 42
2010-11-10 08:33:47 51°19.301 2°55.379 13.7 26 8.9 98950 41
2010-11-10 08:33:52 51°19.308 2°55.4 16.2 283 8.9 98950 41
2010-11-10 08:33:57 51°19.314 2°55.421 14.4 19 8.9 98960 42
2010-11-10 08:34:02 51°19.322 2°55.441 15.1 285 8.9 98960 42
2010-11-10 08:34:07 51°19.328 2°55.462 13.1 23 8.9 98980 42
2010-11-10 08:34:12 51°19.336 2°55.482 14.4 283 8.9 98980 42
2010-11-10 08:34:16 51°19.341 2°55.498 7.1 25 8.9 98970 40
2010-11-10 08:34:22 51°19.35 2°55.521 16.8 281 8.9 98970 40
2010-11-10 08:34:28 51°19.358 2°55.547 16.5 24 8.9 98980 40
2010-11-10 08:34:32 51°19.365 2°55.562 7.2 285 8.9 98980 40
2010-11-10 08:34:37 51°19.371 2°55.583 15 23 8.9 98970 41
2010-11-10 08:34:42 51°19.379 2°55.603 6.9 279 8.9 98970 41
2010-11-10 08:34:48 51°19.386 2°55.628 15.4 23 8.9 98970 39
2010-11-10 08:34:52 51°19.392 2°55.645 14.1 285 8.9 98970 39
2010-11-10 08:34:57 51°19.399 2°55.667 12.4 24 8.9 98970 39
2010-11-10 08:35:02 51°19.405 2°55.688 12.5 286 8.9 98970 39
2010-11-10 08:35:08 51°19.412 2°55.713 6 22 8.9 98970 41
2010-11-10 08:35:12 51°19.417 2°55.73 6.5 283 8.9 98970 41
2010-11-10 08:35:16 51°19.421 2°55.748 14.8 20 8.9 98950 39
2010-11-10 08:35:22 51°19.428 2°55.773 6.1 280 8.9 98950 39
2010-11-10 08:35:28 51°19.435 2°55.8 6.5 316 8.9 98970 41
2010-11-10 08:35:32 51°19.438 2°55.819 16.9 283 8.9 98970 41
2010-11-10 08:35:36 51°19.444 2°55.835 13.9 21 9 98980 40
2010-11-10 08:35:42 51°19.449 2°55.863 15 279 9 98980 40
2010-11-10 08:35:47 51°19.455 2°55.884 16.3 21 9 98970 40
2010-11-10 08:35:52 51°19.46 2°55.906 6.5 283 9 98970 40
2010-11-10 08:35:57 51°19.465 2°55.928 6.5 21 9 98970 39
2010-11-10 08:36:02 51°19.47 2°55.951 15.1 280 9 98970 39
2010-11-10 08:36:08 51°19.477 2°55.977 7 21 8.9 98980 40
2010-11-10 08:36:12 51°19.479 2°55.996 8 283 8.9 98980 40
2010-11-10 08:36:17 51°19.485 2°56.018 7.1 20 9 98970 39
2010-11-10 08:36:22 51°19.489 2°56.04 14.8 283 9 98970 39
2010-11-10 08:36:28 51°19.496 2°56.067 13.4 22 9 98970 39
2010-11-10 08:36:32 51°19.499 2°56.085 13.5 284 9 98970 39
2010-11-10 08:36:37 51°19.504 2°56.107 11.5 20 9 98950 39
2010-11-10 08:36:43 51°19.509 2°56.136 7.1 281 9 98950 39
2010-11-10 08:36:47 51°19.515 2°56.153 15.4 19 9 98980 41
2010-11-10 08:36:52 51°19.518 2°56.176 13 286 9 98980 41
2010-11-10 08:36:56 51°19.523 2°56.193 6.6 23 8.9 98970 41
2010-11-10 08:37:02 51°19.53 2°56.22 11.9 282 8.9 98970 41
2010-11-10 08:37:08 51°19.537 2°56.246 6.4 22 9 98960 41
2010-11-10 08:37:12 51°19.541 2°56.264 13.4 283 9 98960 41
2010-11-10 08:37:16 51°19.546 2°56.282 14 316 9 98960 41
2010-11-10 08:37:22 51°19.551 2°56.309 6.9 286 9 98960 41
2010-11-10 08:37:28 51°19.558 2°56.335 7.1 23 9 98970 41
2010-11-10 08:37:32 51°19.562 2°56.352 6.7 285 9 98970 41
2010-11-10 08:37:37 51°19.567 2°56.375 12.9 19 9 98980 41
2010-11-10 08:37:42 51°19.573 2°56.397 13.6 284 9 98980 41
2010-11-10 08:37:48 51°19.578 2°56.424 16.4 21 9 98980 41
2010-11-10 08:37:52 51°19.583 2°56.44 13.7 280 9 98980 41
2010-11-10 08:37:57 51°19.587 2°56.463 13 20 8.9 98980 40
2010-11-10 08:38:02 51°19.594 2°56.484 6.4 282 8.9 98980 40
2010-11-10 08:38:08 51°19.599 2°56.511 7 24 8.9 98980 40
2010-11-10 08:38:12 51°19.604 2°56.528 12.7 284 8.9 98980 40
2010-11-10 08:38:17 51°19.61 2°56.549 14.1 20 8.9 98980 39
2010-11-10 08:38:23 51°19.615 2°56.576 6.4 282 8.9 98980 39
2010-11-10 08:38:27 51°19.62 2°56.593 6.6 26 9 98980 39
2010-11-10 08:38:32 51°19.625 2°56.615 6.4 285 9 98980 39
2010-11-10 08:38:36 51°19.63 2°56.632 13.4 19 9 98980 40
2010-11-10 08:38:42 51°19.636 2°56.657 6.7 283 9 98980 40
2010-11-10 08:38:48 51°19.643 2°56.684 7.2 24 9 98970 39
2010-11-10 08:38:52 51°19.648 2°56.7 15.1 282 9 98970 39
2010-11-10 08:38:56 51°19.652 2°56.718 15.4 22 9 98970 39
2010-11-10 08:39:02 51°19.658 2°56.744 7.2 282 9 98970 39
2010-11-10 08:39:08 51°19.664 2°56.771 7.2 25 9 99000 40
2010-11-10 08:39:12 51°19.668 2°56.788 13.8 285 9 99000 40
2010-11-10 08:39:17 51°19.674 2°56.81 12.7 19 9 98990 41
2010-11-10 08:39:22 51°19.679 2°56.832 13.9 279 9 98990 41
2010-11-10 08:39:28 51°19.685 2°56.859 12.2 23 9.1 98960 40
2010-11-10 08:39:32 51°19.689 2°56.877 7.4 278 9.1 98960 40
2010-11-10 08:39:37 51°19.695 2°56.899 14 23 9 98960 40
2010-11-10 08:39:42 51°19.699 2°56.921 13.7 281 9 98960 40
2010-11-10 08:39:48 51°19.706 2°56.947 11 22 9 98980 40
2010-11-10 08:39:52 51°19.71 2°56.964 15.3 282 9 98980 40
2010-11-10 08:39:56 51°19.714 2°56.982 12.5 22 9 98970 41
2010-11-10 08:40:02 51°19.72 2°57.009 14 286 9 98970 41
2010-11-10 08:40:08 51°19.727 2°57.035 12.4 25 9 98970 41
2010-11-10 08:40:12 51°19.731 2°57.053 14.8 280 9 98970 41
2010-11-10 08:40:16 51°19.735 2°57.071 15.6 24 9.1 98990 41
2010-11-10 08:40:22 51°19.742 2°57.097 7.1 279 9.1 98990 41
2010-11-10 08:40:27 51°19.747 2°57.118 12.6 25 9 98970 40
2010-11-10 08:40:32 51°19.752 2°57.14 6.4 278 9 98970 40
2010-11-10 08:40:37 51°19.758 2°57.162 6.2 26 9 98970 40
2010-11-10 08:40:42 51°19.762 2°57.184 15.1 287 9 98970 40
2010-11-10 08:40:48 51°19.768 2°57.211 14.9 21 9 98980 41
2010-11-10 08:40:52 51°19.773 2°57.229 15.8 287 9 98980 41
2010-11-10 08:40:57 51°19.779 2°57.25 6.6 20 9.1 98970 40
2010-11-10 08:41:03 51°19.785 2°57.276 13 285 9.1 98970 40
2010-11-10 08:41:07 51°19.79 2°57.293 12.4 23 9 98980 39
2010-11-10 08:41:12 51°19.796 2°57.313 6.2 286 9 98980 39
2010-11-10 08:41:16 51°19.8 2°57.331 14.1 25 9.1 98990 40
2010-11-10 08:41:22 51°19.809 2°57.355 12.2 285 9.1 98990 40
2010-11-10 08:41:28 51°19.815 2°57.381 12.5 23 9.1 98980 41
2010-11-10 08:41:32 51°19.82 2°57.399 14.8 286 9.1 98980 41
2010-11-10 08:41:36 51°19.825 2°57.415 15.8 22 9.1 99010 41
2010-11-10 08:41:42 51°19.83 2°57.441 16 284 9.1 99010 41
2010-11-10 08:41:48 51°19.837 2°57.467 16.1 24 9.1 98970 41
2010-11-10 08:41:52 51°19.841 2°57.485 13.2 283 9.1 98970 41
2010-11-10 08:41:56 51°19.846 2°57.502 17.6 26 9.2 98980 41
2010-11-10 08:42:02 51°19.852 2°57.529 16.9 286 9.2 98980 41
2010-11-10 08:42:08 51°19.859 2°57.554 16.4 24 9.1 98970 40
2010-11-10 08:42:12 51°19.861 2°57.572 17.2 283 9.1 98970 40
2010-11-10 08:42:17 51°19.868 2°57.592 14.4 23 9.1 98960 39
2010-11-10 08:42:22 51°19.875 2°57.614 16.7 284 9.1 98960 39
2010-11-10 08:42:27 51°19.88 2°57.636 14.6 22 9.1 98960 41
2010-11-10 08:42:32 51°19.885 2°57.657 6.9 283 9.1 98960 41
2010-11-10 08:42:37 51°19.891 2°57.678 12 24 9 98950 40
2010-11-10 08:42:43 51°19.896 2°57.705 13.1 286 9 98950 40
2010-11-10 08:42:47 51°19.9 2°57.722 6.4 21 9 98970 41
2010-11-10 08:42:52 51°19.904 2°57.745 13 283 9 98970 41
2010-11-10 08:42:56 51°19.908 2°57.762 6.9 24 9.1 98980 40
2010-11-10 08:43:02 51°19.915 2°57.787 12.8 284 9.1 98980 40
2010-11-10 08:43:08 51°19.922 2°57.813 13.8 23 9.1 98980 39
2010-11-10 08:43:12 51°19.925 2°57.831 14.3 284 9.1 98980 39
2010-11-10 08:43:16 51°19.931 2°57.848 7 24 9.1 98980 40
2010-11-10 08:43:22 51°19.935 2°57.876 7.3 284 9.1 98980 40
2010-11-10 08:43:28 51°19.943 2°57.9 16.5 24 9.1 98970 40
2010-11-10 08:43:32 51°19.946 2°57.918 15.4 282 9.1 98970 40
2010-11-10 08:43:37 51°19.952 2°57.938 15.1 23 9.1 98980 40
2010-11-10 08:43:42 51°19.956 2°57.962 17.8 282 9.1 98980 40
2010-11-10 08:43:48 51°19.964 2°57.986 16.5 22 9.1 98970 41
2010-11-10 08:43:52 51°19.968 2°58.004 16.8 285 9.1 98970 41
2010-11-10 08:43:57 51°19.973 2°58.025 13.7 23 9.1 98970 39
2010-11-10 08:44:02 51°19.977 2°58.047 17.5 284 9.1 98970 39
2010-11-10 08:44:08 51°19.985 2°58.072 14.6 21 9.1 98970 41
2010-11-10 08:44:12 51°19.989 2°58.089 14.8 287 9.1 98970 41
2010-11-10 08:44:17 51°19.995 2°58.111 11.4 23 9.1 98980 40
2010-11-10 08:44:22 51°20 2°58.132 13.7 282 9.1 98980 40
2010-11-10 08:44:28 51°20.006 2°58.158 15.1 20 9.1 98950 40
2010-11-10 08:44:32 51°20.01 2°58.176 14.4 283 9.1 98950 40
2010-11-10 08:44:36 51°20.014 2°58.194 13.1 26 9.1 98980 39
2010-11-10 08:44:42 51°20.019 2°58.221 15.9 282 9.1 98980 39
2010-11-10 08:44:48 51°20.025 2°58.248 12.7 20 9.1 98980 40
2010-11-10 08:44:52 51°20.031 2°58.265 11.2 285 9.1 98980 40
2010-11-10 08:44:56 51°20.033 2°58.284 16.6 23 9.1 98980 40
2010-11-10 08:45:02 51°20.04 2°58.31 13.9 286 9.1 98980 40
2010-11-10 08:45:07 51°20.045 2°58.333 7 25 9.1 98990 39
2010-11-10 08:45:12 51°20.051 2°58.354 14.3 282 9.1 98990 39
2010-11-10 08:45:17 51°20.054 2°58.377 13.1 23 9 99010 40
2010-11-10 08:45:22 51°20.061 2°58.398 12.3 280 9 99010 40
2010-11-10 08:45:28 51°20.065 2°58.425 13.5 22 9.1 98990 40
2010-11-10 08:45:32 51°20.07 2°58.443 13 283 9.1 98990 40
2010-11-10 08:45:37 51°20.075 2°58.466 6.3 24 9 99010 39
2010-11-10 08:45:43 51°20.08 2°58.492 9.3 283 9 99010 39
2010-11-10 08:45:47 51°20.085 2°58.509 14.7 18 9 99010 40
2010-11-10 08:45:52 51°20.091 2°58.53 12.5 287 9 99010 40
2010-11-10 08:45:56 51°20.095 2°58.548 12.9 19 9.1 98980 40
2010-11-10 08:46:02 51°20.102 2°58.573 13.4 285 9.1 98980 40
2010-11-10 08:46:08 51°20.107 2°58.6 16.2 25 9.1 98980 40
2010-11-10 08:46:12 51°20.113 2°58.617 14.6 281 9.1 98980 40
2010-11-10 08:46:16 51°20.115 2°58.636 15.3 21 9.1 98970 40
2010-11-10 08:46:22 51°20.123 2°58.66 15.2 280 9.1 98970 40
2010-11-10 08:46:28 51°20.128 2°58.688 14.4 24 9.1 98990 40
2010-11-10 08:46:32 51°20.133 2°58.705 13.7 285 9.1 98990 40
2010-11-10 08:46:37 51°20.138 2°58.727 7.1 21 9.1 99000 40
2010-11-10 08:46:42 51°20.143 2°58.749 16.7 283 9.1 99000 40
2010-11-10 08:46:48 51°20.15 2°58.775 11.5 24 9.1 98990 40
2010-11-10 08:46:52 51°20.153 2°58.793 6.7 283 9.1 98990 40
2010-11-10 08:46:57 51°20.159 2°58.814 12.9 22 9.1 98970 39
2010-11-10 08:47:02 51°20.163 2°58.837 14.5 287 9.1 98970 39
2010-11-10 08:47:08 51°20.171 2°58.863 14.5 20 9.1 98960 39
2010-11-10 08:47:12 51°20.173 2°58.882 14 283 9.1 98960 39
2010-11-10 08:47:17 51°20.18 2°58.902 12.8 25 9.1 98990 41
2010-11-10 08:47:23 51°20.185 2°58.93 16.5 281 9.1 98990 41
2010-11-10 08:47:27 51°20.191 2°58.947 13.6 24 9.1 98970 40
2010-11-10 08:47:32 51°20.195 2°58.969 13.8 285 9.1 98970 40
2010-11-10 08:47:36 51°20.198 2°58.987 13.9 23 9.1 98980 40
2010-11-10 08:47:42 51°20.205 2°59.013 11.9 278 9.1 98980 40
2010-11-10 08:47:48 51°20.213 2°59.039 11.9 23 9.1 98970 40
2010-11-10 08:47:52 51°20.215 2°59.058 6.1 288 9.1 98970 40
2010-11-10 08:47:57 51°20.222 2°59.079 13.1 22 9.1 98970 39
2010-11-10 08:48:02 51°20.228 2°59.1 6.6 280 9.1 98970 39
2010-11-10 08:48:08 51°20.234 2°59.127 15.7 21 9.1 98980 40
2010-11-10 08:48:12 51°20.238 2°59.144 6.5 279 9.1 98980 40
2010-11-10 08:48:17 51°20.247 2°59.164 13.8 320 9.2 98980 40
2010-11-10 08:48:22 51°20.25 2°59.187 16.7 285 9.2 98980 40
2010-11-10 08:48:28 51°20.259 2°59.212 15.4 22 9.2 98980 41
2010-11-10 08:48:32 51°20.263 2°59.23 15.1 280 9.2 98980 41
2010-11-10 08:48:37 51°20.269 2°59.251 11.5 316 9.2 98990 39
2010-11-10 08:48:42 51°20.275 2°59.273 6 280 9.2 98990 39
2010-11-10 08:48:47 51°20.28 2°59.295 12.3 319 9.3 99000 40
2010-11-10 08:48:52 51°20.286 2°59.317 12.8 283 9.3 99000 40
2010-11-10 08:48:56 51°20.29 2°59.334 11.7 320 9.3 98990 39
2010-11-10 08:49:02 51°20.296 2°59.36 12 282 9.3 98990 39
2010-11-10 08:49:08 51°20.303 2°59.386 12.1 321 9.3 98980 41
2010-11-10 08:49:12 51°20.307 2°59.404 10.6 282 9.3 98980 41
2010-11-10 08:49:16 51°20.312 2°59.422 11.1 320 9.2 99000 40
2010-11-10 08:49:22 51°20.317 2°59.449 15.5 284 9.2 99000 40
2010-11-10 08:49:27 51°20.324 2°59.47 13.6 23 9.2 99000 40
2010-11-10 08:49:32 51°20.328 2°59.492 12.2 279 9.2 99000 40
2010-11-10 08:49:37 51°20.333 2°59.514 13.7 321 9.2 99000 40
2010-11-10 08:49:42 51°20.339 2°59.535 15.3 281 9.2 99000 40
2010-11-10 08:49:48 51°20.346 2°59.561 13.9 321 9.2 99000 41
2010-11-10 08:49:52 51°20.348 2°59.58 13.3 284 9.2 99000 41
2010-11-10 08:49:57 51°20.355 2°59.6 14.7 320 9.1 99000 40
2010-11-10 08:50:03 51°20.361 2°59.626 12.7 285 9.1 99000 40
2010-11-10 08:50:07 51°20.366 2°59.643 12 321 9.1 99000 41
2010-11-10 08:50:12 51°20.37 2°59.665 13.1 283 9.1 99000 41
2010-11-10 08:50:17 51°20.376 2°59.687 6 321 9.1 99000 40
2010-11-10 08:50:22 51°20.381 2°59.709 10.8 286 9.1 99000 40
2010-11-10 08:50:28 51°20.388 2°59.734 11.8 321 9.1 98990 40
2010-11-10 08:50:32 51°20.391 2°59.753 14.1 283 9.1 98990 40
2010-11-10 08:50:36 51°20.397 2°59.769 11.1 320 9 99000 42
2010-11-10 08:50:42 51°20.402 2°59.796 11.8 282 9 99000 42
2010-11-10 08:50:48 51°20.409 2°59.822 6 317 9 99020 40
2010-11-10 08:50:52 51°20.414 2°59.839 9.1 282 9 99020 40
2010-11-10 08:50:56 51°20.419 2°59.857 13.4 320 9 99000 41
2010-11-10 08:51:02 51°20.424 2°59.884 14.4 286 9 99000 41
2010-11-10 08:51:08 51°20.432 2°59.908 13 320 9 99000 42
2010-11-10 08:51:12 51°20.436 2°59.925 13.4 285 9 99000 42
2010-11-10 08:51:17 51°20.443 2°59.947 12.5 318 9 99020 41
2010-11-10 08:51:22 51°20.45 2°59.967 14.7 281 9 99020 41
2010-11-10 08:51:27 51°20.454 2°59.988 13.3 320 9 99020 42
2010-11-10 08:51:32 51°20.461 3°0.009 6.2 281 9 99020 42
2010-11-10 08:51:37 51°20.467 3°0.03 6.9 320 8.9 99000 40
2010-11-10 08:51:43 51°20.473 3°0.056 16.7 283 8.9 99000 40
2010-11-10 08:51:47 51°20.479 3°0.072 17.5 322 8.9 99020 41
2010-11-10 08:51:52 51°20.483 3°0.095 18.1 283 8.9 99020 41
2010-11-10 08:51:56 51°20.489 3°0.111 11.6 321 8.9 99000 41
2010-11-10 08:52:02 51°20.495 3°0.137 18 283 8.9 99000 41
2010-11-10 08:52:08 51°20.502 3°0.162 18.6 320 8.9 99010 42
2010-11-10 08:52:12 51°20.506 3°0.179 17.8 285 8.9 99010 42
2010-11-10 08:52:16 51°20.51 3°0.197 15.4 317 8.8 99010 42
2010-11-10 08:52:22 51°20.518 3°0.222 14.8 282 8.8 99010 42
2010-11-10 08:52:28 51°20.523 3°0.249 13 315 8.8 99010 40
2010-11-10 08:52:32 51°20.528 3°0.266 12.7 286 8.8 99010 40
2010-11-10 08:52:37 51°20.533 3°0.289 12.2 317 8.7 99000 41
2010-11-10 08:52:42 51°20.538 3°0.31 13.3 284 8.7 99000 41
2010-11-10 08:52:48 51°20.544 3°0.338 12.7 320 8.8 99020 42
2010-11-10 08:52:52 51°20.549 3°0.354 14.2 282 8.8 99020 42
2010-11-10 08:52:57 51°20.554 3°0.377 13.2 22 8.7 99010 42
2010-11-10 08:53:02 51°20.56 3°0.398 11.3 283 8.7 99010 42
2010-11-10 08:53:07 51°20.565 3°0.42 13.1 316 8.7 99010 41
2010-11-10 08:53:12 51°20.571 3°0.441 17 278 8.7 99010 41
2010-11-10 08:53:16 51°20.575 3°0.459 11.7 316 8.8 99010 41
2010-11-10 08:53:22 51°20.583 3°0.485 12.7 281 8.8 99010 41
2010-11-10 08:53:28 51°20.588 3°0.511 16.2 317 8.7 99010 40
2010-11-10 08:53:32 51°20.592 3°0.529 12.9 282 8.7 99010 40
2010-11-10 08:53:36 51°20.597 3°0.546 11.9 318 8.7 99010 41
2010-11-10 08:53:42 51°20.603 3°0.573 15.8 285 8.7 99010 41
2010-11-10 08:53:48 51°20.61 3°0.599 17.4 315 8.7 99030 41
2010-11-10 08:53:52 51°20.614 3°0.616 15.1 284 8.7 99030 41
2010-11-10 08:53:56 51°20.618 3°0.634 14 24 8.7 99010 42
2010-11-10 08:54:02 51°20.626 3°0.659 10.8 282 8.7 99010 42
2010-11-10 08:54:07 51°20.629 3°0.682 12.8 24 8.7 99010 40
2010-11-10 08:54:12 51°20.636 3°0.703 9.9 286 8.7 99010 40
2010-11-10 08:54:17 51°20.64 3°0.726 13.2 23 8.7 99010 40
2010-11-10 08:54:22 51°20.647 3°0.747 12.7 283 8.7 99010 40
2010-11-10 08:54:28 51°20.652 3°0.774 11.8 316 8.7 99030 40
2010-11-10 08:54:32 51°20.657 3°0.791 12.5 279 8.7 99030 40
2010-11-10 08:54:37 51°20.663 3°0.812 16.7 23 8.7 99020 42
2010-11-10 08:54:43 51°20.667 3°0.838 6.6 286 8.7 99020 42
2010-11-10 08:54:47 51°20.673 3°0.855 14.4 315 8.8 99020 42
2010-11-10 08:54:52 51°20.678 3°0.876 12.7 284 8.8 99020 42
2010-11-10 08:54:56 51°20.682 3°0.893 12.6 23 8.7 99000 40
2010-11-10 08:55:02 51°20.688 3°0.919 16.2 285 8.7 99000 40
2010-11-10 08:55:08 51°20.695 3°0.945 11.1 316 8.8 99010 42
2010-11-10 08:55:12 51°20.698 3°0.963 10.4 283 8.8 99010 42
2010-11-10 08:55:16 51°20.703 3°0.979 15.9 319 8.7 98990 42
2010-11-10 08:55:22 51°20.709 3°1.006 13.2 281 8.7 98990 42
2010-11-10 08:55:28 51°20.716 3°1.031 13.2 317 8.7 99000 42
2010-11-10 08:55:32 51°20.721 3°1.047 13.4 284 8.7 99000 42
2010-11-10 08:55:37 51°20.727 3°1.069 15.8 22 8.7 99000 43
2010-11-10 08:55:42 51°20.734 3°1.088 9.9 280 8.7 99000 43
2010-11-10 08:55:48 51°20.738 3°1.115 14 317 8.7 99000 41
2010-11-10 08:55:52 51°20.745 3°1.13 12.7 285 8.7 99000 41
2010-11-10 08:55:57 51°20.751 3°1.151 14.4 315 8.7 99020 42
2010-11-10 08:56:02 51°20.758 3°1.17 12 282 8.7 99020 42
2010-11-10 08:56:08 51°20.765 3°1.196 13.1 317 8.7 99020 40
2010-11-10 08:56:12 51°20.77 3°1.212 13.5 281 8.7 99020 40
2010-11-10 08:56:17 51°20.775 3°1.233 13.1 317 8.7 99010 42
2010-11-10 08:56:23 51°20.782 3°1.259 14.2 279 8.7 99010 42
2010-11-10 08:56:27 51°20.787 3°1.276 12.3 317 8.6 99000 42
2010-11-10 08:56:32 51°20.792 3°1.297 12.2 281 8.6 99000 42
2010-11-10 08:56:36 51°20.797 3°1.313 12.6 20 8.6 99010 41
2010-11-10 08:56:42 51°20.803 3°1.34 12.8 288 8.6 99010 41
2010-11-10 08:56:48 51°20.81 3°1.366 4.4 321 8.6 99000 40
2010-11-10 08:56:52 51°20.812 3°1.384 13.3 280 8.6 99000 40
2010-11-10 08:56:56 51°20.816 3°1.401 11.1 27 8.6 99020 41
2010-11-10 08:57:02 51°20.823 3°1.426 12.4 282 8.6 99020 41
2010-11-10 08:57:08 51°20.829 3°1.452 11.6 318 8.6 99020 42
2010-11-10 08:57:12 51°20.832 3°1.47 13.5 283 8.6 99020 42
2010-11-10 08:57:17 51°20.838 3°1.492 11.5 318 8.7 99030 40
2010-11-10 08:57:23 51°20.843 3°1.519 12.1 286 8.7 99030 40
2010-11-10 08:57:28 51°20.847 3°1.541 12.1 22 8.7 99010 42
2010-11-10 08:57:32 51°20.851 3°1.558 13.4 285 8.7 99010 42
2010-11-10 08:57:37 51°20.856 3°1.581 13.7 21 8.7 99020 42
2010-11-10 08:57:42 51°20.861 3°1.603 12.9 286 8.7 99020 42
2010-11-10 08:57:47 51°20.865 3°1.625 12.2 25 8.7 99010 42
2010-11-10 08:57:52 51°20.869 3°1.647 11.8 282 8.7 99010 42
2010-11-10 08:57:56 51°20.874 3°1.665 11.2 23 8.6 99010 42
2010-11-10 08:58:02 51°20.881 3°1.691 13.2 -999 8.6 99010 42
2010-11-10 08:58:08 51°20.886 3°1.717 11.7 33 8.6 99020 41
2010-11-10 08:58:12 51°20.892 3°1.734 14.2 286 8.6 99020 41
2010-11-10 08:58:16 51°20.896 3°1.752 12.8 315 8.7 99020 41
2010-11-10 08:58:22 51°20.902 3°1.778 11 281 8.7 99020 41
2010-11-10 08:58:27 51°20.906 3°1.799 15 22 8.7 99020 42
2010-11-10 08:58:32 51°20.913 3°1.821 11.6 286 8.7 99020 42
2010-11-10 08:58:37 51°20.918 3°1.843 10.4 23 8.6 99010 43
2010-11-10 08:58:42 51°20.923 3°1.865 10.1 283 8.6 99010 43
2010-11-10 08:58:48 51°20.931 3°1.89 5.6 317 8.6 99010 43
2010-11-10 08:58:52 51°20.935 3°1.908 6 285 8.6 99010 43
2010-11-10 08:58:57 51°20.94 3°1.93 14.2 316 8.7 99020 42
2010-11-10 08:59:02 51°20.946 3°1.951 6.2 282 8.7 99020 42
2010-11-10 08:59:08 51°20.952 3°1.978 13.8 317 8.7 99030 42
2010-11-10 08:59:12 51°20.956 3°1.995 10.8 279 8.7 99030 42
2010-11-10 08:59:17 51°20.961 3°2.017 12.4 37 8.7 99030 40
2010-11-10 08:59:23 51°20.968 3°2.043 14.3 281 8.7 99030 40
2010-11-10 08:59:27 51°20.972 3°2.06 14.1 318 8.7 99030 42
2010-11-10 08:59:32 51°20.977 3°2.083 11.2 281 8.7 99030 42
2010-11-10 08:59:36 51°20.982 3°2.1 12.7 320 8.6 99010 42
2010-11-10 08:59:42 51°20.988 3°2.127 13.9 281 8.6 99010 42
2010-11-10 08:59:48 51°20.994 3°2.155 6.8 21 8.6 99010 42
2010-11-10 08:59:52 51°20.999 3°2.172 6.5 284 8.6 99010 42
2010-11-10 08:59:56 51°21.003 3°2.19 6.3 315 8.7 99010 43
2010-11-10 09:00:02 51°21.009 3°2.216 5.8 287 8.7 99010 43
2010-11-10 09:00:08 51°21.015 3°2.244 11.8 316 8.6 99020 43
2010-11-10 09:00:12 51°21.019 3°2.263 13.4 286 8.6 99020 43
2010-11-10 09:00:17 51°21.026 3°2.285 11.6 318 8.6 99000 41
2010-11-10 09:00:22 51°21.029 3°2.307 15 283 8.6 99000 41
2010-11-10 09:00:27 51°21.034 3°2.33 14.3 317 8.6 99020 41
2010-11-10 09:00:32 51°21.04 3°2.352 15.5 280 8.6 99020 41
2010-11-10 09:00:37 51°21.045 3°2.374 15.8 27 8.6 99020 42
2010-11-10 09:00:42 51°21.051 3°2.396 6.3 282 8.6 99020 42
2010-11-10 09:00:47 51°21.057 3°2.419 11.3 317 8.6 99020 42
2010-11-10 09:00:52 51°21.063 3°2.441 5.7 281 8.6 99020 42
2010-11-10 09:00:56 51°21.066 3°2.459 11.5 316 8.6 99020 40
2010-11-10 09:01:02 51°21.074 3°2.485 15.2 284 8.6 99020 40
2010-11-10 09:01:08 51°21.081 3°2.512 5.4 319 8.6 99030 42
2010-11-10 09:01:12 51°21.085 3°2.53 12.4 282 8.6 99030 42
2010-11-10 09:01:16 51°21.09 3°2.547 13.1 318 8.5 99030 42
2010-11-10 09:01:22 51°21.096 3°2.574 11.7 285 8.5 99030 42
2010-11-10 09:01:28 51°21.104 3°2.6 5.9 317 8.6 99030 43
2010-11-10 09:01:32 51°21.109 3°2.617 12.1 285 8.6 99030 43
2010-11-10 09:01:36 51°21.113 3°2.635 6.1 23 8.6 99030 40
2010-11-10 09:01:42 51°21.121 3°2.661 14.7 285 8.6 99030 40
2010-11-10 09:01:48 51°21.127 3°2.688 13.2 317 8.5 99020 41
2010-11-10 09:01:52 51°21.132 3°2.705 11.6 284 8.5 99020 41
2010-11-10 09:01:57 51°21.138 3°2.727 13.3 316 8.6 99020 42
2010-11-10 09:02:02 51°21.143 3°2.75 12.8 279 8.6 99020 42
2010-11-10 09:02:08 51°21.149 3°2.776 6.1 318 8.6 99010 41
2010-11-10 09:02:12 51°21.153 3°2.794 14.2 286 8.6 99010 41
2010-11-10 09:02:17 51°21.16 3°2.816 11.2 320 8.5 99020 42
2010-11-10 09:02:22 51°21.165 3°2.839 5.6 283 8.5 99020 42
2010-11-10 09:02:28 51°21.173 3°2.865 13.6 317 8.6 99020 43
2010-11-10 09:02:32 51°21.177 3°2.883 13.9 279 8.6 99020 43
2010-11-10 09:02:36 51°21.182 3°2.901 12.5 318 8.6 99020 40
2010-11-10 09:02:42 51°21.189 3°2.928 13.7 287 8.6 99020 40
2010-11-10 09:02:48 51°21.195 3°2.955 11 317 8.6 99040 42
2010-11-10 09:02:52 51°21.201 3°2.972 9.8 282 8.6 99040 42
2010-11-10 09:02:56 51°21.206 3°2.989 6.1 323 8.6 99020 41
2010-11-10 09:03:02 51°21.212 3°3.016 12.6 287 8.6 99020 41
2010-11-10 09:03:07 51°21.219 3°3.038 6.8 319 8.6 99020 41
2010-11-10 09:03:12 51°21.224 3°3.061 12.1 283 8.6 99020 41
2010-11-10 09:03:17 51°21.231 3°3.083 6.4 318 8.6 99030 42
2010-11-10 09:03:22 51°21.236 3°3.106 11.8 284 8.6 99030 42
2010-11-10 09:03:28 51°21.243 3°3.132 6.4 318 8.6 99020 41
2010-11-10 09:03:32 51°21.246 3°3.15 11.4 287 8.6 99020 41
2010-11-10 09:03:37 51°21.254 3°3.172 11.5 316 8.6 99030 43
2010-11-10 09:03:43 51°21.26 3°3.199 13.7 282 8.6 99030 43
2010-11-10 09:03:47 51°21.264 3°3.217 13.1 318 8.6 99020 43
2010-11-10 09:03:52 51°21.27 3°3.239 14 286 8.6 99020 43
2010-11-10 09:03:56 51°21.274 3°3.258 14 318 8.6 99020 43
2010-11-10 09:04:02 51°21.281 3°3.285 5.9 281 8.6 99020 43
2010-11-10 09:04:08 51°21.287 3°3.312 6.3 24 8.6 99030 41
2010-11-10 09:04:12 51°21.292 3°3.329 6 283 8.6 99030 41
2010-11-10 09:04:16 51°21.296 3°3.347 10.5 23 8.6 99040 42
2010-11-10 09:04:22 51°21.304 3°3.374 13.7 279 8.6 99040 42
2010-11-10 09:04:28 51°21.309 3°3.401 13.1 20 8.6 99030 41
2010-11-10 09:04:32 51°21.315 3°3.419 6.4 282 8.6 99030 41
2010-11-10 09:04:37 51°21.32 3°3.442 10.7 315 8.6 99030 41
2010-11-10 09:04:42 51°21.326 3°3.464 11.1 278 8.6 99030 41
2010-11-10 09:04:48 51°21.333 3°3.491 11.7 316 8.5 99030 42
2010-11-10 09:04:52 51°21.337 3°3.509 12.7 282 8.5 99030 42
2010-11-10 09:04:57 51°21.344 3°3.531 6.3 316 8.5 99020 42
2010-11-10 09:05:02 51°21.348 3°3.555 12.2 282 8.5 99020 42
2010-11-10 09:05:07 51°21.355 3°3.577 13.3 319 8.6 99030 41
2010-11-10 09:05:12 51°21.359 3°3.599 6.6 278 8.6 99030 41
2010-11-10 09:05:17 51°21.366 3°3.62 15.8 317 8.6 99030 42
2010-11-10 09:05:23 51°21.373 3°3.647 12.2 286 8.6 99030 42
2010-11-10 09:05:27 51°21.378 3°3.665 12.6 316 8.6 99020 42
2010-11-10 09:05:32 51°21.383 3°3.687 11 283 8.6 99020 42
2010-11-10 09:05:36 51°21.387 3°3.705 11.9 317 8.6 99020 41
2010-11-10 09:05:42 51°21.393 3°3.732 11.9 283 8.6 99020 41
2010-11-10 09:05:48 51°21.399 3°3.759 11.7 25 8.6 99020 42
2010-11-10 09:05:52 51°21.403 3°3.778 13.2 278 8.6 99020 42
2010-11-10 09:05:56 51°21.407 3°3.796 10.7 27 8.5 99020 42
2010-11-10 09:06:02 51°21.413 3°3.824 12.8 -999 8.5 99020 42
2010-11-10 09:06:08 51°21.419 3°3.851 12.1 19 8.5 99030 43
2010-11-10 09:06:12 51°21.424 3°3.869 13.5 286 8.5 99030 43
2010-11-10 09:06:17 51°21.429 3°3.892 12.2 318 8.5 99020 43
2010-11-10 09:06:23 51°21.435 3°3.919 14.7 280 8.5 99020 43
2010-11-10 09:06:28 51°21.44 3°3.943 15.1 24 8.5 99020 41
2010-11-10 09:06:32 51°21.444 3°3.961 12.1 281 8.5 99020 41
2010-11-10 09:06:37 51°21.449 3°3.984 11.3 317 8.5 99030 42
2010-11-10 09:06:42 51°21.453 3°4.008 9 282 8.5 99030 42
2010-11-10 09:06:48 51°21.461 3°4.035 10.1 317 8.6 99030 42
2010-11-10 09:06:52 51°21.464 3°4.053 11.5 284 8.6 99030 42
2010-11-10 09:06:57 51°21.469 3°4.077 11 19 8.6 99020 43
2010-11-10 09:07:02 51°21.474 3°4.099 11.3 281 8.6 99020 43
2010-11-10 09:07:07 51°21.479 3°4.122 12.1 316 8.6 99030 43
2010-11-10 09:07:12 51°21.483 3°4.146 11.4 278 8.6 99030 43
2010-11-10 09:07:16 51°21.488 3°4.163 12.4 317 8.6 99040 41
2010-11-10 09:07:22 51°21.493 3°4.191 10.1 281 8.6 99040 41
2010-11-10 09:07:28 51°21.501 3°4.217 11.5 315 8.6 99040 43
2010-11-10 09:07:32 51°21.504 3°4.237 10.6 282 8.6 99040 43
2010-11-10 09:07:36 51°21.508 3°4.255 12 22 8.6 99020 42
2010-11-10 09:07:42 51°21.514 3°4.283 11.6 278 8.6 99020 42
2010-11-10 09:07:48 51°21.519 3°4.311 11.9 317 8.6 99030 43
2010-11-10 09:07:52 51°21.524 3°4.33 14.4 282 8.6 99030 43
2010-11-10 09:07:57 51°21.53 3°4.352 13 318 8.6 99030 41
2010-11-10 09:08:02 51°21.533 3°4.375 12.6 282 8.6 99030 41
2010-11-10 09:08:08 51°21.54 3°4.403 11.3 317 8.6 99040 42
2010-11-10 09:08:12 51°21.543 3°4.422 10.5 286 8.6 99040 42
2010-11-10 09:08:17 51°21.55 3°4.444 10.5 316 8.6 99030 41
2010-11-10 09:08:23 51°21.555 3°4.472 11.3 281 8.6 99030 41
2010-11-10 09:08:27 51°21.559 3°4.491 13 23 8.6 99040 42
2010-11-10 09:08:32 51°21.563 3°4.514 14.5 286 8.6 99040 42
2010-11-10 09:08:36 51°21.567 3°4.533 14.2 315 8.6 99040 42
2010-11-10 09:08:42 51°21.574 3°4.56 10.2 283 8.6 99040 42
2010-11-10 09:08:48 51°21.579 3°4.588 16.2 316 8.6 99040 43
2010-11-10 09:08:52 51°21.583 3°4.606 13.1 280 8.6 99040 43
2010-11-10 09:08:56 51°21.587 3°4.625 13.9 22 8.6 99030 42
2010-11-10 09:09:02 51°21.593 3°4.653 12.8 278 8.6 99030 42
2010-11-10 09:09:08 51°21.6 3°4.68 16.2 25 8.6 99040 42
2010-11-10 09:09:12 51°21.603 3°4.699 12.9 287 8.6 99040 42
2010-11-10 09:09:17 51°21.609 3°4.721 12 25 8.5 99030 40
2010-11-10 09:09:22 51°21.613 3°4.744 10.3 285 8.5 99030 40
2010-11-10 09:09:27 51°21.618 3°4.767 12.3 23 8.5 99030 42
2010-11-10 09:09:32 51°21.623 3°4.791 12.7 282 8.5 99030 42
2010-11-10 09:09:37 51°21.629 3°4.814 12 22 8.5 99030 41
2010-11-10 09:09:42 51°21.633 3°4.837 10.1 278 8.5 99030 41
2010-11-10 09:09:48 51°21.64 3°4.864 13.8 316 8.5 99030 41
2010-11-10 09:09:52 51°21.645 3°4.882 10.9 286 8.5 99030 41
2010-11-10 09:09:57 51°21.65 3°4.905 12.1 317 8.5 99030 41
2010-11-10 09:10:03 51°21.657 3°4.934 12.6 -999 8.5 99030 41
2010-11-10 09:10:07 51°21.661 3°4.952 11.4 317 8.6 99030 42
2010-11-10 09:10:12 51°21.665 3°4.975 12.6 282 8.6 99030 42
2010-11-10 09:10:16 51°21.669 3°4.994 10.5 319 8.6 99040 42
2010-11-10 09:10:22 51°21.675 3°5.022 12.5 283 8.6 99040 42
2010-11-10 09:10:28 51°21.682 3°5.047 14.7 318 8.5 99030 40
2010-11-10 09:10:32 51°21.685 3°5.067 13.5 286 8.5 99030 40
2010-11-10 09:10:36 51°21.69 3°5.085 14.5 25 8.6 99040 42
2010-11-10 09:10:42 51°21.696 3°5.112 5.8 283 8.6 99040 42
2010-11-10 09:10:48 51°21.701 3°5.14 11.7 21 8.6 99030 42
2010-11-10 09:10:52 51°21.707 3°5.157 11.6 283 8.6 99030 42
2010-11-10 09:10:57 51°21.712 3°5.18 11.6 20 8.6 99030 42
2010-11-10 09:11:03 51°21.718 3°5.207 10.6 285 8.6 99030 42
2010-11-10 09:11:08 51°21.722 3°5.23 12 317 8.6 99030 42
2010-11-10 09:11:12 51°21.726 3°5.249 11.7 282 8.6 99030 42
2010-11-10 09:11:17 51°21.729 3°5.273 5.3 319 8.6 99030 42
2010-11-10 09:11:22 51°21.732 3°5.296 12.9 284 8.6 99030 42
2010-11-10 09:11:28 51°21.738 3°5.323 11.1 316 8.6 99050 41
2010-11-10 09:11:32 51°21.742 3°5.34 9.1 280 8.6 99050 41
2010-11-10 09:11:36 51°21.744 3°5.36 15.2 315 8.6 99030 41